Weather in Meret

Russia / Novosibirsk Oblast     53°34′29″N   82°23′49″E
temp.,
°C
wind,
m/s
gust,
m/s
humid.,
%
clouds,
%
prec.,
mm/h
press.,
hPa
HPBL,
m
27 february, sat
sat2701:00−23sw41191100 0.1 1038597
04:00−23sw41092100 0.0 1039564
07:00−23sw4892100 0.1 1039419
10:00−24sw4892100 0.0 1038362
13:00−21wsw4888100 0.1 1039596
16:00−20wsw4684100 0.0 1039697
19:00−24wsw239293 0.0 103921
22:00−26sw22910 0.0 104019
28 february, sun
sun2801:00−26ssw22920 0.0 104019
04:00−26s23952 0.0 103926
07:00−27sse33914 0.0 103840
10:00−24sse389413 0.0 1037216
13:00−16sse488527 0.0 1034485
16:00−12sse5982100 0.0 1031671
19:00−13se4895100 0.4 1027239
22:00−9sse41294100 0.7 1024640
1 march, mon
mon101:00−8s61394100 1.5 1020858
04:00−6s71593100 1.7 1016860
07:00−6ssw91892100 3.3 1012803
10:00−4ssw101985100 0.9 1011805
13:00−2ssw111985100 0.9 1010831
16:00−1ssw11188799 0.0 1009918
19:000sw8159798 0.4 1008737
22:00−1wsw61486100 2.4 1008717
2 march, tue
tue201:00−3wsw5139099 2.5 1010515
04:00−4wsw71491100 0.1 1012825
07:00−13wsw6139095 0.1 1015428
10:00−14wsw6119298 0.0 1017412
13:00−12wsw589098 0.0 1019451
16:00−11wsw4689100 0.0 1019480
19:00−15w119699 0.0 101820
22:00−15ene119690 0.0 101720
3 march, wed
wed301:00−14ese239695 0.1 101535
04:00−13e2296100 0.3 101424
07:00−12ne1197100 0.6 101420
10:00−11w2495100 0.6 1015257
13:00−10wsw6990100 1.0 1018637
16:00−11wsw6988100 0.1 1020605
19:00−14wsw4892100 0.2 1022226
22:00−18sw369582 0.0 1024101